Location: Asheville, NC
(35.6000°N, 82.5500°W)
Time: 02:34:34
(UTC-05:00)

M-CUBED/EXP-1 PRIME - Pass Details

Date: 15 February 2018
Orbit: 431 x 677 km, 101.7° (Epoch: 18 February)

Event Time Altitude Azimuth Distance (km) Brightness Sun altitude
Rises 05:37:49 0° 35° (NE) 2,498 ? -20.7°
Reaches altitude 10° 05:40:12 10° 53° (NE) 1,654 ? -20.3°
Maximum altitude 05:42:53 20° 102° (ESE) 1,185 ? -19.7°
Drops below altitude 10° 05:45:42 10° 152° (SSE) 1,741 ? -19.1°
Sets 05:48:16 0° 169° (SSE) 2,676 ? -18.6°
